Sigfox identifier Datetime Temperature Humidity SNR
002F1896 2019-06-03 16:40:32 20 42 18.5
002F1896 2019-06-03 15:35:46 19.5 44 18.7
002F1896 2019-06-03 14:30:54 18.7 48 18.7
002F1896 2019-06-03 13:26:03 17.2 51 18.7
002F1896 2019-06-03 12:21:11 15.8 53 20.5
002F1896 2019-06-03 11:16:19 13.8 54 20.6
002F1896 2019-06-03 10:11:24 12 52 20.7
002F1896 2019-06-03 09:06:26 10.3 48 20.7
002F1896 2019-06-03 08:01:29 9.5 46 20.6
002F1896 2019-06-03 06:56:30 9.1 43 20.6
002F1896 2019-06-03 05:51:36 9.6 42 20.6
002F1896 2019-06-03 04:46:40 10.4 42 20.6
002F1896 2019-06-03 03:41:46 11.6 42 20.5
002F1896 2019-06-03 02:36:54 12.7 42 20.5
002F1896 2019-06-03 01:32:01 14 43 20.6
002F1896 2019-06-03 00:27:08 15.5 44 20.6
002F1896 2019-06-02 23:22:16 16.8 45 20.7
002F1896 2019-06-02 22:17:28 18 48 20.7
002F1896 2019-06-02 21:12:39 18.9 51 20.7
002F1896 2019-06-02 20:07:52 18.9 53 20.7
002F1896 2019-06-02 19:03:05 18.6 54 18.9
002F1896 2019-06-02 17:58:19 17.7 54 19
002F1896 2019-06-02 16:53:30 16.5 53 18.9
002F1896 2019-06-02 15:48:39 14.9 53 18.9
002F1896 2019-06-02 14:43:45 13.6 49 18.9
002F1896 2019-06-02 13:38:52 12.9 48 19
002F1896 2019-06-02 12:33:58 12.7 47 19.2
002F1896 2019-06-02 11:29:05 12.7 47 19.4
002F1896 2019-06-02 10:24:13 12.5 46 19.4
002F1896 2019-06-02 09:19:21 12.3 46 16.9
002F1896 2019-06-02 08:14:27 12.2 45 16.8
002F1896 2019-06-02 07:09:34 12.2 44 17
002F1896 2019-06-02 06:04:40 12.3 43 17.1
002F1896 2019-06-02 04:59:47 12.5 43 17.3
002F1896 2019-06-02 03:54:53 12.7 42 17.3
002F1896 2019-06-02 02:49:59 12.8 41 17.4
002F1896 2019-06-02 01:45:05 13.2 40 17.5
002F1896 2019-06-02 00:40:11 14 40 17.6
002F1896 2019-06-01 23:35:17 14.6 39 17.7
002F1896 2019-06-01 22:30:26 15.5 39 17.7
002F1896 2019-06-01 21:25:35 16.5 39 18
002F1896 2019-06-01 20:20:46 17.7 39 18.8
002F1896 2019-06-01 19:16:01 18.8 41 20.1
002F1896 2019-06-01 18:11:15 19.2 42 21.2
002F1896 2019-06-01 17:06:28 19.3 42 21.5
002F1896 2019-06-01 16:01:41 19.3 42 22
002F1896 2019-06-01 14:56:53 18.9 43 22.9
002F1896 2019-06-01 13:52:07 18 42 23.7
002F1896 2019-06-01 12:47:16 17.4 40 24
002F1896 2019-06-01 11:42:23 17.2 38 24.4
002F1896 2019-06-01 10:37:31 17.2 36 24.9
002F1896 2019-06-01 09:32:41 17.6 34 25.3
002F1896 2019-06-01 08:27:52 18.4 33 25.6
002F1896 2019-06-01 07:23:05 18.7 32 25.9
002F1896 2019-06-01 06:18:17 18.7 32 26
002F1896 2019-06-01 05:13:31 18.8 32 26.3
002F1896 2019-06-01 04:08:46 18.9 32 26.6
002F1896 2019-06-01 03:04:00 18.9 31 26.7
002F1896 2019-06-01 01:59:15 18.9 31 26.9
002F1896 2019-06-01 00:54:29 19.1 31 27
002F1896 2019-05-31 23:49:42 19.3 31 27.3
002F1896 2019-05-31 22:44:57 19.5 31 27.6
002F1896 2019-05-31 21:40:12 19.7 31 27.9
002F1896 2019-05-31 20:35:26 19.8 31 28
002F1896 2019-05-31 19:30:42 19.8 31 28.2
002F1896 2019-05-31 18:25:56 19.7 32 28.4
002F1896 2019-05-31 17:21:10 20.4 33 28.5
002F1896 2019-05-31 15:11:42 20.8 36 28.5
002F1896 2019-05-31 14:06:56 20.8 37 28.7
002F1896 2019-05-31 13:02:13 21 39 28.7
002F1896 2019-05-31 11:57:28 20.9 38 28.7
002F1896 2019-05-31 10:52:44 21 38 28.5
002F1896 2019-05-31 09:48:01 20.8 37 28.5
002F1896 2019-05-31 08:43:17 20.6 37 28.6
002F1896 2019-05-31 07:38:32 20.6 37 28.6
002F1896 2019-05-31 06:33:47 20.6 37 28.7
002F1896 2019-05-31 05:29:03 20.6 37 28.6
002F1896 2019-05-31 04:24:18 20.6 37 28.7
002F1896 2019-05-31 03:19:35 20.6 37 28.8
002F1896 2019-05-31 02:14:49 20.6 37 28.8
002F1896 2019-05-31 01:10:04 20.5 37 28.7
002F1896 2019-05-31 00:05:16 20.4 37 28.9
002F1896 2019-05-30 23:00:28 20.4 37 28.8
002F1896 2019-05-30 21:55:41 20.4 38 28.8
002F1896 2019-05-30 20:50:52 20.3 38 28.8
002F1896 2019-05-30 19:46:03 20.2 38 28.7
002F1896 2019-05-30 18:41:15 20.2 39 28.7
002F1896 2019-05-30 17:36:29 20.1 39 28.7
002F1896 2019-05-30 16:31:44 20.2 40 28.7
002F1896 2019-05-30 15:26:59 20.2 40 28.6
002F1896 2019-05-30 14:22:13 20.2 41 28.6
002F1896 2019-05-30 13:17:26 20.4 41 28.5
002F1896 2019-05-30 12:12:37 20.4 41 28.4
002F1896 2019-05-30 11:07:52 20.4 41 28.3
002F1896 2019-05-30 10:03:07 20.4 42 28.2
002F1896 2019-05-30 08:58:20 20.4 42 28.1
002F1896 2019-05-30 07:53:33 20.5 42 28.3
002F1896 2019-05-30 06:48:46 20.5 43 28.2
002F1896 2019-05-30 05:43:58 20.5 43 28.2
002F1896 2019-05-30 04:39:11 20.6 43 27.9
002F1896 2019-05-30 03:34:24 20.6 44 28
002F1896 2019-05-30 02:29:35 20.6 44 28
002F1896 2019-05-30 01:24:48 20.7 45 27.8
002F1896 2019-05-30 00:20:00 20.8 45 28
002F1896 2019-05-29 23:15:15 20.8 46 28
002F1896 2019-05-29 22:10:27 20.8 46 27.9
002F1896 2019-05-29 21:05:41 20.8 47 28
002F1896 2019-05-29 20:00:54 20.8 48 28.2
002F1896 2019-05-29 18:56:06 20.8 49 28.2
002F1896 2019-05-29 17:51:19 21 49 28.4
002F1896 2019-05-29 16:46:33 21.2 50 28.1
002F1896 2019-05-29 15:41:48 21.1 50 27.9
002F1896 2019-05-29 14:37:03 20.8 50 27.8
002F1896 2019-05-29 13:32:16 20.8 50 27.6
002F1896 2019-05-29 12:27:30 20.8 50 27.3
002F1896 2019-05-29 11:22:43 20.9 50 27.3
002F1896 2019-05-29 10:17:56 20.8 50 27.4
002F1896 2019-05-29 09:13:10 20.8 49 27.2
002F1896 2019-05-29 08:08:24 20.8 48 27.1
002F1896 2019-05-29 07:03:37 20.8 48 26.9
002F1896 2019-05-29 05:58:50 20.8 48 26.6
002F1896 2019-05-29 04:54:05 20.8 48 26.6
002F1896 2019-05-29 03:49:19 20.9 48 26.3
002F1896 2019-05-29 02:44:31 20.9 48 26.2
002F1896 2019-05-29 01:39:44 21 48 26
002F1896 2019-05-29 00:34:57 21 48 25.6
002F1896 2019-05-28 23:30:11 21 48 25.2
002F1896 2019-05-28 22:25:25 21 47 25.1
002F1896 2019-05-28 21:20:38 21 47 24.6
002F1896 2019-05-28 20:15:52 21 47 24
002F1896 2019-05-28 19:11:05 21 48 23.7
002F1896 2019-05-28 18:06:17 20.9 48 23
002F1896 2019-05-28 17:01:31 20.9 47 22.1
002F1896 2019-05-28 15:56:45 21 48 20.9
002F1896 2019-05-28 14:51:58 21 47 19.4
002F1896 2019-05-28 13:47:12 20.9 47 19.4
002F1896 2019-05-28 12:42:24 20.8 46 19.6
002F1896 2019-05-28 11:37:37 20.7 46 19.8
002F1896 2019-05-28 10:32:51 20.7 46 19.9
002F1896 2019-05-28 09:28:04 20.8 45 20.1
002F1896 2019-05-28 08:23:18 20.6 44 20
002F1896 2019-05-28 07:18:31 20.8 44 19.6
002F1896 2019-05-28 06:13:44 20.8 43 19.8
002F1896 2019-05-28 05:08:57 20.8 43 19.9
002F1896 2019-05-28 04:04:09 20.8 43 19.9
002F1896 2019-05-28 02:59:23 20.8 43 19.7
002F1896 2019-05-28 01:54:37 20.8 43 19.2
002F1896 2019-05-28 00:49:53 20.9 43 18.4
002F1896 2019-05-27 23:45:05 21 43 18.8
002F1896 2019-05-27 22:40:18 21 43 18.1
002F1896 2019-05-27 21:35:31 21 43 16.8
002F1896 2019-05-27 20:30:44 21 43 17.3
002F1896 2019-05-27 19:25:55 20.8 43 16.7
002F1896 2019-05-27 18:21:06 20.7 44 17.6
002F1896 2019-05-27 17:16:15 20.9 45 8.1
002F1896 2019-05-27 16:11:26 21.1 45 9.5
002F1896 2019-05-27 15:06:32 21 52 0